Leadville, CO

11:30 AM MDT on April 23, 2018 (GMT -0600)
Lake County

Weather History for KLXV - September, 2011

Change the Weather History Date:

Wednesday, September 21, 2011

  Actual Average Record
Temperature  
Mean Temperature 43 °F -  
Max Temperature 58 °F 59 °F 72 °F (2015)
Min Temperature 28 °F 30 °F 9 °F (1978)
Degree Days  
Heating Degree Days 22 21  
Month to date heating degree days 390 375  
Since 1 July heating degree days 907 1097  
Cooling Degree Days 0 0  
Month to date cooling degree days 0 0  
Year to date cooling degree days 0 0  
Moisture  
Dew Point 26 °F    
Average Humidity 58    
Maximum Humidity 92    
Minimum Humidity 24    
Precipitation  
Precipitation T in 0.03 in 0.54 in (2000)
Month to date precipitation 1.42 0.81  
Year to date precipitation 12.19 9.76  
Snow  
Snow 0.00 in - - ()
Month to date snowfall 0.0  
Snow Depth 0.00 in    
Sea Level Pressure  
Sea Level Pressure 30.03 in    
Wind  
Wind Speed 8 mph (North)    
Max Wind Speed 26 mph    
Max Gust Speed 37 mph    
Visibility 10 miles    
Events      
T = Trace of Precipitation, MM = Missing Value Source: NWS Daily Summary

Daily Weather History Graph

Daily Weather History Graph

Search for Another Location

Airport or City:

Astronomy

Sep. 21, 2011 Rise Set
Actual Time 6:51 AM MDT 7:04 PM MDT
Civil Twilight 6:25 AM MDT 7:30 PM MDT
Nautical Twilight 5:53 AM MDT 8:02 PM MDT
Astronomical Twilight 5:21 AM MDT 8:34 PM MDT
Moon 12:16 AM MDT (9/21) 3:14 PM MDT (9/21)
Length of Visible Light 13h 05m
Length of Day
12h 12m
Last Quarter, 38% of the Moon is Illuminated
Sep 21
Last Quarter
Sep 27
New
Oct 3
First Quarter
Oct 11
Full
Oct 19
Last Quarter

Hourly Weather History & Observations

Time (MDT) Temp. Windchill Dew Point Humidity Pressure Visibility Wind Dir Wind Speed Gust Speed Precip Events Conditions
12:53 AM 37.9 °F - 30.0 °F 73% 29.99 in 10.0 mi Calm Calm - N/A   Overcast
1:53 AM 37.0 °F - 30.0 °F 76% 29.98 in 10.0 mi Calm Calm - N/A   Overcast
2:53 AM 35.1 °F 32.2 °F 28.9 °F 78% 29.99 in 10.0 mi ENE 3.5 mph - N/A   Scattered Clouds
3:53 AM 34.0 °F - 28.0 °F 79% 29.97 in 10.0 mi Calm Calm - N/A   Clear
4:53 AM 30.9 °F - 27.0 °F 85% 30.03 in 10.0 mi Calm Calm - N/A   Clear
5:53 AM 30.0 °F 26.5 °F 26.1 °F 85% 30.04 in 10.0 mi East 3.5 mph - N/A   Clear
6:53 AM 28.9 °F 22.8 °F 26.1 °F 89% 30.07 in 10.0 mi East 5.8 mph - N/A   Clear
7:53 AM 32.0 °F 28.7 °F 27.0 °F 82% 30.10 in 10.0 mi East 3.5 mph - N/A   Clear
8:53 AM 39.9 °F - 28.9 °F 65% 30.06 in 10.0 mi Calm Calm - N/A   Clear
9:53 AM 48.9 °F - 28.9 °F 46% 29.99 in 10.0 mi NNE 8.1 mph - N/A   Clear
10:53 AM 52.0 °F - 25.0 °F 35% 30.01 in 9.0 mi NNW 13.8 mph 23.0 mph N/A   Partly Cloudy
11:53 AM 53.1 °F - 24.1 °F 32% 29.96 in 10.0 mi NW 15.0 mph 26.5 mph N/A   Clear
12:53 PM 55.0 °F - 24.1 °F 30% 29.96 in 10.0 mi NW 15.0 mph 26.5 mph N/A   Clear
1:53 PM 55.0 °F - 21.9 °F 28% 29.97 in 10.0 mi NW 16.1 mph 27.6 mph N/A   Partly Cloudy
2:53 PM 55.0 °F - 19.9 °F 25% 29.98 in 10.0 mi NNW 18.4 mph 26.5 mph N/A   Partly Cloudy
3:53 PM 55.9 °F - 19.9 °F 25% 29.97 in 10.0 mi NW 18.4 mph 26.5 mph N/A   Partly Cloudy
4:53 PM 55.0 °F - 23.0 °F 29% 30.00 in 10.0 mi WNW 15.0 mph 26.5 mph N/A   Mostly Cloudy
5:53 PM 50.0 °F - 24.1 °F 36% 30.07 in 10.0 mi North 18.4 mph 26.5 mph N/A   Overcast
6:53 PM 48.0 °F - 25.0 °F 41% 30.11 in 10.0 mi NW 11.5 mph 19.6 mph N/A   Overcast
7:53 PM 45.0 °F - 25.0 °F 46% 30.12 in 10.0 mi Calm Calm - N/A   Mostly Cloudy
8:53 PM 45.0 °F 41.8 °F 26.1 °F 48% 30.09 in 10.0 mi North 5.8 mph - N/A   Overcast
9:53 PM 39.9 °F 36.7 °F 30.9 °F 70% 30.09 in 10.0 mi SSE 4.6 mph - 0.00 in   Overcast
10:53 PM 37.0 °F 33.3 °F 28.9 °F 73% 30.09 in 10.0 mi South 4.6 mph - N/A   Clear
11:53 PM 33.1 °F - 28.0 °F 82% 30.14 in 10.0 mi Calm Calm - N/A   Clear